Content
SEND FEEDBACK

Australia Flag

BARMARYEE, QUEENSLAND


Home > Oceania > Australia > Queensland
Elevation: 246 feet     Latitude: 23 06S     Longitude: 150 43E

WEATHER
 
SELECT A DAY
Number of Records: 322,642;   Date Range: 2/21/97 - 3/22/16
 
SHARE

PRINT THIS DATA

[ ← Previous Day ]
WEATHER ALMANAC - JANUARY 29, 2013
[ Next Day → ]
[ °C ]   °F
Weather ElementAverageHighLow
Temperature87.2 °F100.4 °F (2:30 pm)77 °F (3:30 am)
Dewpoint74.2 °F78.8 °F (9:00 pm)60.8 °F (2:00 pm)
Humidity66.7 %94 % (3:30 am)29 % (2:00 pm)
Barometer29.64 in29.72 in (10:00 pm)29.59 in (12:30 am)
Wind Speed5.5 mph11.5 mph (4:30 pm)
Weather ElementAverage
Visibility9.2 mi
Wind DirectionSE (136.5 °)

Weather ElementTotal
Precipitation---
Cooling Degree Days23.7 (Base 65)
Growing Degree Days38.7 (Base 50)
Averaged from 63 records on January 29, 2013
WEATHER CONDITIONS BREAKOUT
WIND DIRECTION BREAKOUT
WEATHER BY HOUR - JANUARY 29, 2013
[ °C ]   °F
Local TimeTemperatureDewpointHumidityBarometerVisibilityWind DirectionWind SpeedGust SpeedPrecipitationEventsConditions
12:00 AM82.4 °F75.2 °F79 %29.62 in6.2 miNorth (360°)8.1 mph
12:30 AM80.6 °F75.2 °F84 %29.59 in6.2 miNorth (350°)5.8 mph
1:00 AM80.0 °F76.0 °F82 %29.61 inNNE (30°)3.5 mph
1:00 AM78.8 °F75.2 °F89 %29.59 in6.2 miNNE (30°)3.5 mph
1:30 AM78.8 °F75.2 °F89 %29.59 in6.2 miCalm
2:00 AM78.8 °F75.2 °F89 %29.59 in6.2 miNE (40°)2.3 mph
2:30 AM78.8 °F75.2 °F89 %29.59 in6.2 miCalm
3:00 AM78.8 °F75.2 °F89 %29.59 in6.2 miCalm
3:00 AM78.0 °F75.0 °F88 %29.60 inCalm
3:30 AM77.0 °F75.2 °F94 %29.59 in6.2 miEast (100°)3.5 mph
4:00 AM78.0 °F75.0 °F87 %29.60 inSE (130°)4.6 mph
4:00 AM78.8 °F75.2 °F89 %29.59 in6.2 miSE (130°)4.6 mph
4:30 AM78.8 °F75.2 °F89 %29.59 in6.2 miSSE (150°)2.3 mph
5:00 AM78.8 °F77.0 °F94 %29.62 in6.2 miSSE (160°)2.3 mph
5:30 AM78.8 °F75.2 °F89 %29.62 in6.2 miSSE (150°)3.5 mph
6:00 AM78.8 °F77.0 °F94 %29.62 inSE (140°)4.6 mphClear
6:00 AM78.0 °F76.0 °F92 %29.64 in25.0 miSE (140°)4.6 mphPartly Cloudy
6:30 AM80.6 °F77.0 °F89 %29.65 inSE (130°)4.6 mphClear
7:00 AM81.0 °F77.0 °F83 %29.66 inESE (110°)4.6 mph
7:00 AM80.6 °F77.0 °F89 %29.65 inESE (110°)4.6 mphClear
7:30 AM82.4 °F77.0 °F84 %29.65 inSE (140°)3.5 mphClear
8:00 AM84.2 °F75.2 °F74 %29.65 in6.2 miENE (60°)2.3 mphPartly Cloudy
8:30 AM86.0 °F75.2 °F70 %29.68 in6.2 miNNW (340°)4.6 mphPartly Cloudy
9:00 AM87.8 °F73.4 °F62 %29.68 in6.2 miNNW (340°)8.1 mphPartly Cloudy
9:00 AM87.0 °F74.0 °F57 %29.69 in25.0 miNNW (340°)8.1 mphPartly Cloudy
9:30 AM89.6 °F73.4 °F59 %29.68 in6.2 miNNW (330°)8.1 mphPartly Cloudy
10:00 AM90.0 °F74.0 °F51 %29.69 inNNW (330°)6.9 mph
10:00 AM89.6 °F75.2 °F62 %29.68 in6.2 miNNW (330°)6.9 mphPartly Cloudy
10:30 AM91.4 °F73.4 °F55 %29.68 in6.2 miNNW (330°)5.8 mphPartly Cloudy
11:00 AM91.4 °F71.6 °F52 %29.68 in6.2 miNorth (350°)8.1 mphPartly Cloudy
11:30 AM95.0 °F73.4 °F49 %29.65 in6.2 miNNW (330°)5.8 mphPartly Cloudy
12:00 PM95.0 °F73.4 °F49 %29.65 in6.2 miNNW (340°)4.6 mphPartly Cloudy
12:00 PM95.0 °F74.0 °F41 %29.67 in25.0 miNNW (340°)4.6 mphPartly Cloudy
12:30 PM95.0 °F73.4 °F49 %29.65 in6.2 miNE (40°)5.8 mphPartly Cloudy
1:00 PM96.0 °F70.0 °F34 %29.64 inNorth6.9 mph
1:00 PM95.0 °F69.8 °F44 %29.62 in6.2 miNorth (360°)6.9 mphPartly Cloudy
1:30 PM96.8 °F64.4 °F34 %29.62 in6.2 miNNE (30°)5.8 mphScattered Clouds
2:00 PM98.6 °F60.8 °F29 %29.59 in6.2 miEast (90°)6.9 mphScattered Clouds
2:30 PM100.4 °F64.4 °F31 %29.59 inNorth (10°)8.1 mphClear
3:00 PM98.6 °F73.4 °F44 %29.59 inSE (140°)5.8 mphClear
3:00 PM98.0 °F73.0 °F35 %29.60 in25.0 miSE (140°)5.8 mphPartly Cloudy
3:30 PM98.6 °F69.8 °F39 %29.59 inEast (90°)5.8 mphClear
4:00 PM97.0 °F74.0 °F38 %29.60 inEast (80°)9.2 mph
4:00 PM96.8 °F73.4 °F47 %29.59 inEast (80°)9.2 mphClear
4:30 PM96.8 °F71.6 °F44 %29.59 inNorth (10°)11.5 mphClear
5:00 PM95.0 °F71.6 °F47 %29.59 inNNE (20°)10.4 mphClear
5:30 PM93.2 °F71.6 °F49 %29.59 in6.2 miNorth (10°)11.5 mphPartly Cloudy
6:00 PM91.4 °F73.4 °F55 %29.62 in6.2 miNNE (30°)11.5 mphPartly Cloudy
6:00 PM92.0 °F74.0 °F46 %29.62 in25.0 miNNE (30°)11.5 mphPartly Cloudy
6:30 PM89.6 °F75.2 °F62 %29.62 in6.2 miNNE (20°)10.4 mphPartly Cloudy
7:00 PM88.0 °F76.0 °F61 %29.65 inNNE (30°)9.2 mph
7:00 PM87.8 °F77.0 °F70 %29.65 in6.2 miNNE (30°)9.2 mphPartly Cloudy
7:30 PM87.8 °F75.2 °F66 %29.65 in6.2 miNorth (10°)6.9 mphPartly Cloudy
8:00 PM86.0 °F77.0 °F74 %29.68 inNNE (20°)4.6 mphClear
8:30 PM87.8 °F75.2 °F66 %29.68 inESE (110°)1.2 mphClear
9:00 PM86.0 °F78.8 °F79 %29.68 inSSE (150°)3.5 mphClear
9:00 PM86.0 °F78.0 °F71 %29.70 in25.0 miSSE (160°)3.5 mphPartly Cloudy
9:30 PM86.0 °F75.2 °F70 %29.71 inEast (90°)3.5 mphClear
10:00 PM85.0 °F76.0 °F67 %29.72 inSouth (170°)4.6 mph
10:00 PM84.2 °F75.2 °F74 %29.71 inSouth (170°)4.6 mphClear
10:30 PM84.2 °F77.0 °F79 %29.71 inSE (130°)4.6 mphClear
11:00 PM82.4 °F77.0 °F84 %29.71 in6.2 miNE (50°)3.5 mph
11:30 PM82.4 °F77.0 °F84 %29.71 in6.2 miCalm
Hourly data recorded from YBRK, located miles away from Barmaryee, Queensland




STORIES FROM OUR PARTNERS